Flag for United Kingdom Weather past 2 weeks in Swansea, Wales, United Kingdom

Now
63 °F

Mild.


Feels Like: 63 °F
Forecast: 58 / 64 °F
Wind: 10 mph from West

Location: Mumbles

Current Time: Jul 31, 2014 at 7:29:04 AM

Latest Report: Jul 31, 2014 at 6:00 AM


Visibility: N/A

Pressure: 29.99 "Hg

Humidity: 93%

Dew point: 61 °F

Location of SwanseaLocation

Historic Weather in Swansea — Graph

°F

Swansea temperature yesterday

Maximum temperature yesterday: 68 °F (at 11:00 AM)
Minimum temperature yesterday: 58 °F (at 6:00 AM)
Average temperature yesterday: 63 °F

Past Weeks' High & Low Weather Summary

 TemperatureHumidityPressure
High77 °F (Jul 23, 8:00 PM)97% (Jul 16, 9:00 PM)30.26 "Hg (Jul 16, 9:00 PM)
Low58 °F (Jul 17, 6:00 AM)50% (Jul 27, 5:00 PM)29.77 "Hg (Jul 19, 5:00 PM)
Average66 °F76%30.05 "Hg
* Reported Jul 16 6:00 AM — Jul 31 6:00 AM, Swansea, Weather by CustomWeather, © 2014

Note: Actual official high and low records may vary slightly from our data, if they occured in-between our weather recording intervals... More about our weather records

Advertising

Swansea weather history for previous 24 hours

 ConditionsComfort  
Time TempWeatherWind HumidityBarometerVisibility
6:00 AM
Jul 31
63 °FMild.10 mph93%29.99 "HgN/A
5:00 AM64 °FMild.17 mph88%29.99 "HgN/A
4:00 AM64 °FMild.15 mph85%30.01 "HgN/A
3:00 AM62 °FCool.14 mph85%30.01 "HgN/A
2:00 AM62 °FCool.13 mph84%30.02 "HgN/A
1:00 AM62 °FMild.12 mph83%30.03 "HgN/A
12:00 AM62 °FCool.10 mph83%30.04 "HgN/A
11:00 PM
Jul 30
62 °FCool.14 mph83%30.05 "HgN/A
10:00 PM63 °FMild.13 mph82%30.06 "HgN/A
9:00 PM64 °FMild.17 mph79%30.05 "HgN/A
8:00 PM64 °FMild.18 mph75%30.05 "HgN/A
7:00 PM66 °FMild.22 mph74%30.05 "HgN/A
6:00 PM66 °FMild.23 mph72%30.05 "HgN/A
5:00 PM66 °FMild.22 mph73%30.06 "HgN/A
4:00 PM66 °FMild.26 mph73%30.06 "HgN/A
3:00 PM66 °FMild.25 mph72%30.06 "HgN/A
2:00 PM67 °FMild.24 mph71%30.06 "HgN/A
1:00 PM66 °FMild.20 mph72%30.08 "HgN/A
12:00 PM66 °FMild.14 mph63%30.08 "HgN/A
11:00 AM68 °FMild.13 mph61%30.08 "HgN/A
10:00 AM65 °FMild.10 mph64%30.09 "HgN/A
9:00 AM64 °FMild.8 mph71%30.08 "HgN/A
8:00 AM62 °FCool.7 mph75%30.08 "HgN/A
7:00 AM59 °FCool.9 mph84%30.08 "HgN/A
Weather by CustomWeather, © 2014

See weather overviewHow to use our weather pages